Year,Month,Day,Hour,Minute,Value (Times are PST for temperature in C)
2019,04,01,00,00,6.70
2019,04,01,00,01,6.70
2019,04,01,00,02,6.70
2019,04,01,00,03,6.60
2019,04,01,00,04,6.60
2019,04,01,00,05,6.60
2019,04,01,00,06,6.60
2019,04,01,00,07,6.60
2019,04,01,00,08,6.60
2019,04,01,00,09,6.60
2019,04,01,00,10,6.60
2019,04,01,00,11,6.60
2019,04,01,00,12,6.60
2019,04,01,00,13,6.60
2019,04,01,00,14,6.60
2019,04,01,00,15,6.60
2019,04,01,00,16,6.60
2019,04,01,00,17,6.60
2019,04,01,00,18,6.70
2019,04,01,00,19,6.70
2019,04,01,00,20,6.70
2019,04,01,00,21,6.80
2019,04,01,00,22,6.80
2019,04,01,00,23,6.80
2019,04,01,00,24,6.90
2019,04,01,00,25,7.00
2019,04,01,00,26,7.10
2019,04,01,00,27,7.10
2019,04,01,00,28,7.10
2019,04,01,00,29,7.10
2019,04,01,00,30,7.10
2019,04,01,00,31,7.10
2019,04,01,00,32,7.00
2019,04,01,00,33,7.00
2019,04,01,00,34,7.00
2019,04,01,00,35,6.90
2019,04,01,00,36,6.90
2019,04,01,00,37,6.90
2019,04,01,00,38,6.90
2019,04,01,00,39,6.90
2019,04,01,00,40,6.80
2019,04,01,00,41,6.60
2019,04,01,00,42,6.40
2019,04,01,00,43,6.30
2019,04,01,00,44,6.20
2019,04,01,00,45,6.20
2019,04,01,00,46,6.10
2019,04,01,00,47,6.00
2019,04,01,00,48,6.00
2019,04,01,00,49,6.00
2019,04,01,00,50,6.00
2019,04,01,00,51,6.00
2019,04,01,00,52,6.00
2019,04,01,00,53,6.10
2019,04,01,00,54,6.20
2019,04,01,00,55,6.20
2019,04,01,00,56,6.30
2019,04,01,00,57,6.30
2019,04,01,00,58,6.30
2019,04,01,00,59,6.30
2019,04,01,01,00,6.30
2019,04,01,01,01,6.30
2019,04,01,01,02,6.20
2019,04,01,01,03,6.20
2019,04,01,01,04,6.20
2019,04,01,01,05,6.20
2019,04,01,01,06,6.20
2019,04,01,01,07,6.30
2019,04,01,01,08,6.30
2019,04,01,01,09,6.30
2019,04,01,01,10,6.30
2019,04,01,01,11,6.20
2019,04,01,01,12,6.20
2019,04,01,01,13,6.20
2019,04,01,01,14,6.20
2019,04,01,01,15,6.10
2019,04,01,01,16,6.10
2019,04,01,01,17,6.10
2019,04,01,01,18,6.10
2019,04,01,01,19,6.10
2019,04,01,01,20,6.10
2019,04,01,01,21,6.10
2019,04,01,01,22,6.10
2019,04,01,01,23,6.20
2019,04,01,01,24,6.20
2019,04,01,01,25,6.20
2019,04,01,01,26,6.20
2019,04,01,01,27,6.30
2019,04,01,01,28,6.30
2019,04,01,01,29,6.30
2019,04,01,01,30,6.30
2019,04,01,01,31,6.30
2019,04,01,01,32,6.30
2019,04,01,01,33,6.40
2019,04,01,01,34,6.40
2019,04,01,01,35,6.40
2019,04,01,01,36,6.40
2019,04,01,01,37,6.50
2019,04,01,01,38,6.50
2019,04,01,01,39,6.50
2019,04,01,01,40,6.50
2019,04,01,01,41,6.50
2019,04,01,01,42,6.50
2019,04,01,01,43,6.50
2019,04,01,01,44,6.50
2019,04,01,01,45,6.50
2019,04,01,01,46,6.50
2019,04,01,01,47,6.50
2019,04,01,01,48,6.50
2019,04,01,01,49,6.50
2019,04,01,01,50,6.50
2019,04,01,01,51,6.50
2019,04,01,01,52,6.50
2019,04,01,01,53,6.50
2019,04,01,01,54,6.50
2019,04,01,01,55,6.50
2019,04,01,01,56,6.50
2019,04,01,01,57,6.50
2019,04,01,01,58,6.40
2019,04,01,01,59,6.40
2019,04,01,02,00,6.30
2019,04,01,02,01,6.30
2019,04,01,02,02,6.30
2019,04,01,02,03,6.30
2019,04,01,02,04,6.30
2019,04,01,02,05,6.30
2019,04,01,02,06,6.30
2019,04,01,02,07,6.30
2019,04,01,02,08,6.20
2019,04,01,02,09,6.30
2019,04,01,02,10,6.40
2019,04,01,02,11,6.50
2019,04,01,02,12,6.60
2019,04,01,02,13,6.70
2019,04,01,02,14,6.60
2019,04,01,02,15,6.60
2019,04,01,02,16,6.60
2019,04,01,02,17,6.60
2019,04,01,02,18,6.60
2019,04,01,02,19,6.60
2019,04,01,02,20,6.60
2019,04,01,02,21,6.60
2019,04,01,02,22,6.70
2019,04,01,02,23,6.70
2019,04,01,02,24,6.70
2019,04,01,02,25,6.70
2019,04,01,02,26,6.70
2019,04,01,02,27,6.70
2019,04,01,02,28,6.70
2019,04,01,02,29,6.70
2019,04,01,02,30,6.70
2019,04,01,02,31,6.60
2019,04,01,02,32,6.60
2019,04,01,02,33,6.60
2019,04,01,02,34,6.60
2019,04,01,02,35,6.70
2019,04,01,02,36,6.70
2019,04,01,02,37,6.70
2019,04,01,02,38,6.70
2019,04,01,02,39,6.70
2019,04,01,02,40,6.70
2019,04,01,02,41,6.80
2019,04,01,02,42,6.80
2019,04,01,02,43,6.80
2019,04,01,02,44,6.80
2019,04,01,02,45,6.80
2019,04,01,02,46,6.70
2019,04,01,02,47,6.70
2019,04,01,02,48,6.70
2019,04,01,02,49,6.70
2019,04,01,02,50,6.70
2019,04,01,02,51,6.70
2019,04,01,02,52,6.60
2019,04,01,02,53,6.60
2019,04,01,02,54,6.60
2019,04,01,02,55,6.60
2019,04,01,02,56,6.50
2019,04,01,02,57,6.50
2019,04,01,02,58,6.40
2019,04,01,02,59,6.40
2019,04,01,03,00,6.30
2019,04,01,03,01,6.30
2019,04,01,03,02,6.30
2019,04,01,03,03,6.30
2019,04,01,03,04,6.30
2019,04,01,03,05,6.30
2019,04,01,03,06,6.30
2019,04,01,03,07,6.30
2019,04,01,03,08,6.20
2019,04,01,03,09,6.20
2019,04,01,03,10,6.20
2019,04,01,03,11,6.20
2019,04,01,03,12,6.30
2019,04,01,03,13,6.40
2019,04,01,03,14,6.40
2019,04,01,03,15,6.40
2019,04,01,03,16,6.40
2019,04,01,03,17,6.50
2019,04,01,03,18,6.50
2019,04,01,03,19,6.50
2019,04,01,03,20,6.60
2019,04,01,03,21,6.60
2019,04,01,03,22,6.60
2019,04,01,03,23,6.70
2019,04,01,03,24,6.70
2019,04,01,03,25,6.70
2019,04,01,03,26,6.70
2019,04,01,03,27,6.80
2019,04,01,03,28,6.80
2019,04,01,03,29,6.80
2019,04,01,03,30,6.80
2019,04,01,03,31,6.80
2019,04,01,03,32,6.80
2019,04,01,03,33,6.80
2019,04,01,03,34,6.80
2019,04,01,03,35,6.90
2019,04,01,03,36,6.90
2019,04,01,03,37,6.90
2019,04,01,03,38,6.90
2019,04,01,03,39,6.90
2019,04,01,03,40,6.90
2019,04,01,03,41,7.00
2019,04,01,03,42,7.00
2019,04,01,03,43,7.00
2019,04,01,03,44,7.00
2019,04,01,03,45,7.00
2019,04,01,03,46,7.00
2019,04,01,03,47,7.00
2019,04,01,03,48,7.00
2019,04,01,03,49,6.90
2019,04,01,03,50,6.90
2019,04,01,03,51,6.90
2019,04,01,03,52,6.80
2019,04,01,03,53,6.80
2019,04,01,03,54,6.80
2019,04,01,03,55,6.70
2019,04,01,03,56,6.70
2019,04,01,03,57,6.70
2019,04,01,03,58,6.70
2019,04,01,03,59,6.60
2019,04,01,04,00,6.60
2019,04,01,04,01,6.60
2019,04,01,04,02,6.60
2019,04,01,04,03,6.60
2019,04,01,04,04,6.60
2019,04,01,04,05,6.60
2019,04,01,04,06,6.60
2019,04,01,04,07,6.60
2019,04,01,04,08,6.70
2019,04,01,04,09,6.70
2019,04,01,04,10,6.70
2019,04,01,04,11,6.70
2019,04,01,04,12,6.70
2019,04,01,04,13,6.70
2019,04,01,04,14,6.70
2019,04,01,04,15,6.70
2019,04,01,04,16,6.70
2019,04,01,04,17,6.70
2019,04,01,04,18,6.70
2019,04,01,04,19,6.70
2019,04,01,04,20,6.70
2019,04,01,04,21,6.70
2019,04,01,04,22,6.60
2019,04,01,04,23,6.60
2019,04,01,04,24,6.60
2019,04,01,04,25,6.60
2019,04,01,04,26,6.50
2019,04,01,04,27,6.50
2019,04,01,04,28,6.40
2019,04,01,04,29,6.40
2019,04,01,04,30,6.40
2019,04,01,04,31,6.40
2019,04,01,04,32,6.40
2019,04,01,04,33,6.40
2019,04,01,04,34,6.40
2019,04,01,04,35,6.40
2019,04,01,04,36,6.40
2019,04,01,04,37,6.40
2019,04,01,04,38,6.40
2019,04,01,04,39,6.40
2019,04,01,04,40,6.40
2019,04,01,04,41,6.40
2019,04,01,04,42,6.40
2019,04,01,04,43,6.40
2019,04,01,04,44,6.40
2019,04,01,04,45,6.40
2019,04,01,04,46,6.40
2019,04,01,04,47,6.40
2019,04,01,04,48,6.40
2019,04,01,04,49,6.40
2019,04,01,04,50,6.40
2019,04,01,04,51,6.50
2019,04,01,04,52,6.60
2019,04,01,04,53,6.70
2019,04,01,04,54,6.70
2019,04,01,04,55,6.70
2019,04,01,04,56,6.70
2019,04,01,04,57,6.70
2019,04,01,04,58,6.70
2019,04,01,04,59,6.80
2019,04,01,05,00,6.80
2019,04,01,05,01,6.80
2019,04,01,05,02,6.80
2019,04,01,05,03,6.80
2019,04,01,05,04,6.80
2019,04,01,05,05,6.80
2019,04,01,05,06,6.80
2019,04,01,05,07,6.80
2019,04,01,05,08,6.80
2019,04,01,05,09,6.80
2019,04,01,05,10,6.80
2019,04,01,05,11,6.80
2019,04,01,05,12,6.80
2019,04,01,05,13,6.80
2019,04,01,05,14,6.80
2019,04,01,05,15,6.80
2019,04,01,05,16,6.80
2019,04,01,05,17,6.80
2019,04,01,05,18,6.80
2019,04,01,05,19,6.90
2019,04,01,05,20,6.90
2019,04,01,05,21,6.90
2019,04,01,05,22,6.90
2019,04,01,05,23,6.90
2019,04,01,05,24,6.90
2019,04,01,05,25,6.90
2019,04,01,05,26,7.00
2019,04,01,05,27,7.00
2019,04,01,05,28,7.10
2019,04,01,05,29,7.10
2019,04,01,05,30,7.20
2019,04,01,05,31,7.20
2019,04,01,05,32,7.30
2019,04,01,05,33,7.30
2019,04,01,05,34,7.30
2019,04,01,05,35,7.40
2019,04,01,05,36,7.50
2019,04,01,05,37,7.50
2019,04,01,05,38,7.60
2019,04,01,05,39,7.60
2019,04,01,05,40,7.70
2019,04,01,05,41,7.80
2019,04,01,05,42,7.80
2019,04,01,05,43,7.80
2019,04,01,05,44,7.90
2019,04,01,05,45,8.00
2019,04,01,05,46,8.00
2019,04,01,05,47,8.10
2019,04,01,05,48,8.10
2019,04,01,05,49,8.10
2019,04,01,05,50,8.10
2019,04,01,05,51,8.10
2019,04,01,05,52,8.10
2019,04,01,05,53,8.20
2019,04,01,05,54,8.20
2019,04,01,05,55,8.20
2019,04,01,05,56,8.30
2019,04,01,05,57,8.30
2019,04,01,05,58,8.30
2019,04,01,05,59,8.30
2019,04,01,06,00,8.30
2019,04,01,06,01,8.30
2019,04,01,06,02,8.30
2019,04,01,06,03,8.30
2019,04,01,06,04,8.30
2019,04,01,06,05,8.30
2019,04,01,06,06,8.40
2019,04,01,06,07,8.40
2019,04,01,06,08,8.40
2019,04,01,06,09,8.40
2019,04,01,06,10,8.40
2019,04,01,06,11,8.40
2019,04,01,06,12,8.40
2019,04,01,06,13,8.40
2019,04,01,06,14,8.40
2019,04,01,06,15,8.40
2019,04,01,06,16,8.50
2019,04,01,06,17,8.50
2019,04,01,06,18,8.50
2019,04,01,06,19,8.50
2019,04,01,06,20,8.50
2019,04,01,06,21,8.50
2019,04,01,06,22,8.50
2019,04,01,06,23,8.40
2019,04,01,06,24,8.40
2019,04,01,06,25,8.40
2019,04,01,06,26,8.30
2019,04,01,06,27,8.30
2019,04,01,06,28,8.30
2019,04,01,06,29,8.30
2019,04,01,06,30,8.30
2019,04,01,06,31,8.20
2019,04,01,06,32,8.20
2019,04,01,06,33,8.20
2019,04,01,06,34,8.20
2019,04,01,06,35,8.20
2019,04,01,06,36,8.10
2019,04,01,06,37,8.10
2019,04,01,06,38,8.00
2019,04,01,06,39,8.00
2019,04,01,06,40,7.90
2019,04,01,06,41,7.90
2019,04,01,06,42,7.90
2019,04,01,06,43,7.90
2019,04,01,06,44,7.80
2019,04,01,06,45,7.80
2019,04,01,06,46,7.80
2019,04,01,06,47,7.70
2019,04,01,06,48,7.70
2019,04,01,06,49,7.70
2019,04,01,06,50,7.70
2019,04,01,06,51,7.60
2019,04,01,06,52,7.60
2019,04,01,06,53,7.60
2019,04,01,06,54,7.50
2019,04,01,06,55,7.50
2019,04,01,06,56,7.50
2019,04,01,06,57,7.50
2019,04,01,06,58,7.50
2019,04,01,06,59,7.40
2019,04,01,07,00,7.40
2019,04,01,07,01,7.40
2019,04,01,07,02,7.40
2019,04,01,07,03,7.40
2019,04,01,07,04,7.40
2019,04,01,07,05,7.40
2019,04,01,07,06,7.30
2019,04,01,07,07,7.40
2019,04,01,07,08,7.40
2019,04,01,07,09,7.40
2019,04,01,07,10,7.50
2019,04,01,07,11,7.50
2019,04,01,07,12,7.60
2019,04,01,07,13,7.60
2019,04,01,07,14,7.60
2019,04,01,07,15,7.70
2019,04,01,07,16,7.70
2019,04,01,07,17,7.70
2019,04,01,07,18,7.70
2019,04,01,07,19,7.80
2019,04,01,07,20,7.80
2019,04,01,07,21,7.80
2019,04,01,07,22,7.90
2019,04,01,07,23,8.00
2019,04,01,07,24,8.10
2019,04,01,07,25,8.20
2019,04,01,07,26,8.30
2019,04,01,07,27,8.30
2019,04,01,07,28,8.40
2019,04,01,07,29,8.40
2019,04,01,07,30,8.50
2019,04,01,07,31,8.60
2019,04,01,07,32,8.60
2019,04,01,07,33,8.70
2019,04,01,07,34,8.70
2019,04,01,07,35,8.70
2019,04,01,07,36,8.80
2019,04,01,07,37,8.80
2019,04,01,07,38,8.80
2019,04,01,07,39,8.80
2019,04,01,07,40,8.80
2019,04,01,07,41,8.80
2019,04,01,07,42,8.70
2019,04,01,07,43,8.70
2019,04,01,07,44,8.70
2019,04,01,07,45,8.70
2019,04,01,07,46,8.70
2019,04,01,07,47,8.70
2019,04,01,07,48,8.70
2019,04,01,07,49,8.70
2019,04,01,07,50,8.70
2019,04,01,07,51,8.70
2019,04,01,07,52,8.60
2019,04,01,07,53,8.60
2019,04,01,07,54,8.60
2019,04,01,07,55,8.60
2019,04,01,07,56,8.60
2019,04,01,07,57,8.60
2019,04,01,07,58,8.60
2019,04,01,07,59,8.60
2019,04,01,08,00,8.60
2019,04,01,08,01,8.60
2019,04,01,08,02,8.60
2019,04,01,08,03,8.70
2019,04,01,08,04,8.70
2019,04,01,08,05,8.70
2019,04,01,08,06,8.70
2019,04,01,08,07,8.70
2019,04,01,08,08,8.80
2019,04,01,08,09,8.80
2019,04,01,08,10,8.80
2019,04,01,08,11,8.90
2019,04,01,08,12,8.90
2019,04,01,08,13,9.00
2019,04,01,08,14,9.10
2019,04,01,08,15,9.10
2019,04,01,08,16,9.20
2019,04,01,08,17,9.30
2019,04,01,08,18,9.30
2019,04,01,08,19,9.40
2019,04,01,08,20,9.50
2019,04,01,08,21,9.60
2019,04,01,08,22,9.70
2019,04,01,08,23,9.80
2019,04,01,08,24,9.80
2019,04,01,08,25,9.90
2019,04,01,08,26,9.90
2019,04,01,08,27,9.90
2019,04,01,08,28,9.90
2019,04,01,08,29,9.90
2019,04,01,08,30,9.90
2019,04,01,08,31,10.00
2019,04,01,08,32,10.00
2019,04,01,08,33,10.00
2019,04,01,08,34,10.00
2019,04,01,08,35,10.10
2019,04,01,08,36,10.10
2019,04,01,08,37,10.10
2019,04,01,08,38,10.20
2019,04,01,08,39,10.20
2019,04,01,08,40,10.20
2019,04,01,08,41,10.20
2019,04,01,08,42,10.20
2019,04,01,08,43,10.20
2019,04,01,08,44,10.20
2019,04,01,08,45,10.20
2019,04,01,08,46,10.20
2019,04,01,08,47,10.20
2019,04,01,08,48,10.20
2019,04,01,08,49,10.20
2019,04,01,08,50,10.20
2019,04,01,08,51,10.20
2019,04,01,08,52,10.20
2019,04,01,08,53,10.10
2019,04,01,08,54,10.10
2019,04,01,08,55,10.10
2019,04,01,08,56,10.10
2019,04,01,08,57,10.10
2019,04,01,08,58,10.10
2019,04,01,08,59,10.20
2019,04,01,09,00,10.20
2019,04,01,09,01,10.20
2019,04,01,09,02,10.20
2019,04,01,09,03,10.20
2019,04,01,09,04,10.20
2019,04,01,09,05,10.20
2019,04,01,09,06,10.20
2019,04,01,09,07,10.20
2019,04,01,09,08,10.20
2019,04,01,09,09,10.20
2019,04,01,09,10,10.20
2019,04,01,09,11,10.30
2019,04,01,09,12,10.30
2019,04,01,09,13,10.30
2019,04,01,09,14,10.30
2019,04,01,09,15,10.30
2019,04,01,09,16,10.40
2019,04,01,09,17,10.40
2019,04,01,09,18,10.50
2019,04,01,09,19,10.50
2019,04,01,09,20,10.50
2019,04,01,09,21,10.50
2019,04,01,09,22,10.50
2019,04,01,09,23,10.50
2019,04,01,09,24,10.50
2019,04,01,09,25,10.50
2019,04,01,09,26,10.40
2019,04,01,09,27,10.40
2019,04,01,09,28,10.40
2019,04,01,09,29,10.50
2019,04,01,09,30,10.50
2019,04,01,09,31,10.60
2019,04,01,09,32,10.60
2019,04,01,09,33,10.60
2019,04,01,09,34,10.60
2019,04,01,09,35,10.60
2019,04,01,09,36,10.60
2019,04,01,09,37,10.70
2019,04,01,09,38,10.70
2019,04,01,09,39,10.70
2019,04,01,09,40,10.70
2019,04,01,09,41,10.70
2019,04,01,09,42,10.80
2019,04,01,09,43,10.80
2019,04,01,09,44,10.80
2019,04,01,09,45,10.80
2019,04,01,09,46,10.80
2019,04,01,09,47,10.80
2019,04,01,09,48,10.80
2019,04,01,09,49,10.90
2019,04,01,09,50,10.90
2019,04,01,09,51,11.00
2019,04,01,09,52,11.00
2019,04,01,09,53,11.10
2019,04,01,09,54,11.10
2019,04,01,09,55,11.20
2019,04,01,09,56,11.30
2019,04,01,09,57,11.30
2019,04,01,09,58,11.40
2019,04,01,09,59,11.40
2019,04,01,10,00,11.40
2019,04,01,10,01,11.40
2019,04,01,10,02,11.50
2019,04,01,10,03,11.50
2019,04,01,10,04,11.50
2019,04,01,10,05,11.60
2019,04,01,10,06,11.60
2019,04,01,10,07,11.70
2019,04,01,10,08,11.70
2019,04,01,10,09,11.80
2019,04,01,10,10,11.80
2019,04,01,10,11,11.90
2019,04,01,10,12,12.00
2019,04,01,10,13,12.10
2019,04,01,10,14,12.20
2019,04,01,10,15,12.30
2019,04,01,10,16,12.40
2019,04,01,10,17,12.40
2019,04,01,10,18,12.50
2019,04,01,10,19,12.60
2019,04,01,10,20,12.70
2019,04,01,10,21,12.70
2019,04,01,10,22,12.80
2019,04,01,10,23,12.80
2019,04,01,10,24,12.90
2019,04,01,10,25,12.90
2019,04,01,10,26,13.00
2019,04,01,10,27,13.10
2019,04,01,10,28,13.10
2019,04,01,10,29,13.10
2019,04,01,10,30,13.10
2019,04,01,10,31,13.10
2019,04,01,10,32,13.10
2019,04,01,10,33,13.10
2019,04,01,10,34,13.10
2019,04,01,10,35,13.20
2019,04,01,10,36,13.20
2019,04,01,10,37,13.20
2019,04,01,10,38,13.30
2019,04,01,10,39,13.30
2019,04,01,10,40,13.30
2019,04,01,10,41,13.40
2019,04,01,10,42,13.50
2019,04,01,10,43,13.50
2019,04,01,10,44,13.60
2019,04,01,10,45,13.60
2019,04,01,10,46,13.70
2019,04,01,10,47,13.60
2019,04,01,10,48,13.60
2019,04,01,10,49,13.60
2019,04,01,10,50,13.50
2019,04,01,10,51,13.60
2019,04,01,10,52,13.60
2019,04,01,10,53,13.60
2019,04,01,10,54,13.60
2019,04,01,10,55,13.70
2019,04,01,10,56,13.70
2019,04,01,10,57,13.80
2019,04,01,10,58,13.80
2019,04,01,10,59,13.80
2019,04,01,11,00,13.80
2019,04,01,11,01,13.80
2019,04,01,11,02,13.90
2019,04,01,11,03,13.80
2019,04,01,11,04,13.80
2019,04,01,11,05,13.80
2019,04,01,11,06,13.80
2019,04,01,11,07,13.80
2019,04,01,11,08,13.80
2019,04,01,11,09,13.80
2019,04,01,11,10,13.80
2019,04,01,11,11,13.80
2019,04,01,11,12,13.80
2019,04,01,11,13,13.80
2019,04,01,11,14,13.80
2019,04,01,11,15,13.80
2019,04,01,11,16,13.90
2019,04,01,11,17,13.90
2019,04,01,11,18,13.90
2019,04,01,11,19,13.90
2019,04,01,11,20,14.00
2019,04,01,11,21,14.00
2019,04,01,11,22,14.00
2019,04,01,11,23,14.10
2019,04,01,11,24,14.10
2019,04,01,11,25,14.20
2019,04,01,11,26,14.20
2019,04,01,11,27,14.20
2019,04,01,11,28,14.20
2019,04,01,11,29,14.20
2019,04,01,11,30,14.30
2019,04,01,11,31,14.40
2019,04,01,11,32,14.40
2019,04,01,11,33,14.50
2019,04,01,11,34,14.50
2019,04,01,11,35,14.50
2019,04,01,11,36,14.60
2019,04,01,11,37,14.60
2019,04,01,11,38,14.70
2019,04,01,11,39,14.80
2019,04,01,11,40,14.90
2019,04,01,11,41,15.00
2019,04,01,11,42,15.10
2019,04,01,11,43,15.20
2019,04,01,11,44,15.20
2019,04,01,11,45,15.20
2019,04,01,11,46,15.20
2019,04,01,11,47,15.30
2019,04,01,11,48,15.30
2019,04,01,11,49,15.40
2019,04,01,11,50,15.40
2019,04,01,11,51,15.50
2019,04,01,11,52,15.60
2019,04,01,11,53,15.70
2019,04,01,11,54,15.70
2019,04,01,11,55,15.80
2019,04,01,11,56,15.80
2019,04,01,11,57,15.80
2019,04,01,11,58,15.80
2019,04,01,11,59,15.80
2019,04,01,12,00,15.90
2019,04,01,12,01,16.00
2019,04,01,12,02,16.00
2019,04,01,12,03,16.10
2019,04,01,12,04,16.20
2019,04,01,12,05,16.20
2019,04,01,12,06,16.20
2019,04,01,12,07,16.20
2019,04,01,12,08,16.20
2019,04,01,12,09,16.30
2019,04,01,12,10,16.30
2019,04,01,12,11,16.30
2019,04,01,12,12,16.30
2019,04,01,12,13,16.30
2019,04,01,12,14,16.30
2019,04,01,12,15,16.30
2019,04,01,12,16,16.30
2019,04,01,12,17,16.40
2019,04,01,12,18,16.40
2019,04,01,12,19,16.40
2019,04,01,12,20,16.40
2019,04,01,12,21,16.40
2019,04,01,12,22,16.30
2019,04,01,12,23,16.20
2019,04,01,12,24,16.10
2019,04,01,12,25,15.90
2019,04,01,12,26,15.80
2019,04,01,12,27,15.70
2019,04,01,12,28,15.60
2019,04,01,12,29,15.50
2019,04,01,12,30,15.40
2019,04,01,12,31,15.30
2019,04,01,12,32,15.20
2019,04,01,12,33,15.10
2019,04,01,12,34,15.10
2019,04,01,12,35,15.00
2019,04,01,12,36,14.90
2019,04,01,12,37,14.90
2019,04,01,12,38,14.90
2019,04,01,12,39,14.90
2019,04,01,12,40,14.90
2019,04,01,12,41,14.90
2019,04,01,12,42,15.00
2019,04,01,12,43,15.00
2019,04,01,12,44,15.00
2019,04,01,12,45,14.90
2019,04,01,12,46,14.80
2019,04,01,12,47,14.50
2019,04,01,12,48,14.40
2019,04,01,12,49,14.40
2019,04,01,12,50,14.40
2019,04,01,12,51,14.50
2019,04,01,12,52,14.60
2019,04,01,12,53,14.70
2019,04,01,12,54,14.70
2019,04,01,12,55,14.70
2019,04,01,12,56,14.70
2019,04,01,12,57,14.60
2019,04,01,12,58,14.60
2019,04,01,12,59,14.70
2019,04,01,13,00,14.80
2019,04,01,13,01,14.80
2019,04,01,13,02,14.80
2019,04,01,13,03,14.80
2019,04,01,13,04,14.80
2019,04,01,13,05,14.80
2019,04,01,13,06,14.80
2019,04,01,13,07,14.80
2019,04,01,13,08,14.80
2019,04,01,13,09,14.80
2019,04,01,13,10,14.90
2019,04,01,13,11,15.00
2019,04,01,13,12,15.00
2019,04,01,13,13,15.00
2019,04,01,13,14,15.00
2019,04,01,13,15,15.00
2019,04,01,13,16,14.90
2019,04,01,13,17,14.90
2019,04,01,13,18,14.80
2019,04,01,13,19,14.90
2019,04,01,13,20,14.90
2019,04,01,13,21,14.80
2019,04,01,13,22,14.90
2019,04,01,13,23,15.00
2019,04,01,13,24,15.10
2019,04,01,13,25,15.20
2019,04,01,13,26,15.30
2019,04,01,13,27,15.30
2019,04,01,13,28,15.30
2019,04,01,13,29,15.30
2019,04,01,13,30,15.30
2019,04,01,13,31,15.40
2019,04,01,13,32,15.50
2019,04,01,13,33,15.60
2019,04,01,13,34,15.60
2019,04,01,13,35,15.70
2019,04,01,13,36,15.70
2019,04,01,13,37,15.80
2019,04,01,13,38,15.80
2019,04,01,13,39,15.80
2019,04,01,13,40,15.70
2019,04,01,13,41,15.70
2019,04,01,13,42,15.70
2019,04,01,13,43,15.60
2019,04,01,13,44,15.60
2019,04,01,13,45,15.50
2019,04,01,13,46,15.50
2019,04,01,13,47,15.40
2019,04,01,13,48,15.40
2019,04,01,13,49,15.40
2019,04,01,13,50,15.50
2019,04,01,13,51,15.60
2019,04,01,13,52,15.70
2019,04,01,13,53,15.80
2019,04,01,13,54,15.80
2019,04,01,13,55,15.80
2019,04,01,13,56,15.80
2019,04,01,13,57,15.70
2019,04,01,13,58,15.70
2019,04,01,13,59,15.70
2019,04,01,14,00,15.70
2019,04,01,14,01,15.80
2019,04,01,14,02,15.80
2019,04,01,14,03,15.70
2019,04,01,14,04,15.60
2019,04,01,14,05,15.60
2019,04,01,14,06,15.50
2019,04,01,14,07,15.50
2019,04,01,14,08,15.50
2019,04,01,14,09,15.50
2019,04,01,14,10,15.60
2019,04,01,14,11,15.60
2019,04,01,14,12,15.50
2019,04,01,14,13,15.50
2019,04,01,14,14,15.50
2019,04,01,14,15,15.40
2019,04,01,14,16,15.40
2019,04,01,14,17,15.40
2019,04,01,14,18,15.40
2019,04,01,14,19,15.50
2019,04,01,14,20,15.50
2019,04,01,14,21,15.60
2019,04,01,14,22,15.60
2019,04,01,14,23,15.70
2019,04,01,14,24,15.80
2019,04,01,14,25,15.80
2019,04,01,14,26,15.90
2019,04,01,14,27,16.00
2019,04,01,14,28,16.00
2019,04,01,14,29,16.00
2019,04,01,14,30,16.00
2019,04,01,14,31,16.00
2019,04,01,14,32,16.10
2019,04,01,14,33,16.10
2019,04,01,14,34,16.10
2019,04,01,14,35,16.10
2019,04,01,14,36,16.10
2019,04,01,14,37,16.00
2019,04,01,14,38,15.90
2019,04,01,14,39,15.80
2019,04,01,14,40,15.80
2019,04,01,14,41,15.80
2019,04,01,14,42,15.70
2019,04,01,14,43,15.70
2019,04,01,14,44,15.70
2019,04,01,14,45,15.70
2019,04,01,14,46,15.80
2019,04,01,14,47,15.80
2019,04,01,14,48,15.70
2019,04,01,14,49,15.70
2019,04,01,14,50,15.70
2019,04,01,14,51,15.70
2019,04,01,14,52,15.80
2019,04,01,14,53,15.80
2019,04,01,14,54,15.90
2019,04,01,14,55,15.90
2019,04,01,14,56,15.90
2019,04,01,14,57,15.90
2019,04,01,14,58,15.80
2019,04,01,14,59,15.90
2019,04,01,15,00,15.90
2019,04,01,15,01,15.90
2019,04,01,15,02,15.80
2019,04,01,15,03,15.80
2019,04,01,15,04,15.90
2019,04,01,15,05,15.90
2019,04,01,15,06,15.90
2019,04,01,15,07,15.90
2019,04,01,15,08,15.80
2019,04,01,15,09,15.80
2019,04,01,15,10,15.70
2019,04,01,15,11,15.70
2019,04,01,15,12,15.70
2019,04,01,15,13,15.80
2019,04,01,15,14,15.90
2019,04,01,15,15,15.90
2019,04,01,15,16,15.90
2019,04,01,15,17,15.90
2019,04,01,15,18,15.90
2019,04,01,15,19,15.90
2019,04,01,15,20,16.00
2019,04,01,15,21,16.00
2019,04,01,15,22,16.00
2019,04,01,15,23,15.90
2019,04,01,15,24,15.80
2019,04,01,15,25,15.80
2019,04,01,15,26,15.70
2019,04,01,15,27,15.70
2019,04,01,15,28,15.70
2019,04,01,15,29,15.60
2019,04,01,15,30,15.60
2019,04,01,15,31,15.50
2019,04,01,15,32,15.40
2019,04,01,15,33,15.30
2019,04,01,15,34,15.30
2019,04,01,15,35,15.30
2019,04,01,15,36,15.30
2019,04,01,15,37,15.40
2019,04,01,15,38,15.40
2019,04,01,15,39,15.50
2019,04,01,15,40,15.50
2019,04,01,15,41,15.60
2019,04,01,15,42,15.60
2019,04,01,15,43,15.70
2019,04,01,15,44,15.70
2019,04,01,15,45,15.70
2019,04,01,15,46,15.70
2019,04,01,15,47,15.70
2019,04,01,15,48,15.70
2019,04,01,15,49,15.60
2019,04,01,15,50,15.60
2019,04,01,15,51,15.60
2019,04,01,15,52,15.60
2019,04,01,15,53,15.50
2019,04,01,15,54,15.50
2019,04,01,15,55,15.40
2019,04,01,15,56,15.40
2019,04,01,15,57,15.50
2019,04,01,15,58,15.60
2019,04,01,15,59,15.70
2019,04,01,16,00,15.70
2019,04,01,16,01,15.80
2019,04,01,16,02,15.80
2019,04,01,16,03,15.80
2019,04,01,16,04,15.70
2019,04,01,16,05,15.60
2019,04,01,16,06,15.50
2019,04,01,16,07,15.40
2019,04,01,16,08,15.40
2019,04,01,16,09,15.40
2019,04,01,16,10,15.40
2019,04,01,16,11,15.30
2019,04,01,16,12,15.30
2019,04,01,16,13,15.30
2019,04,01,16,14,15.30
2019,04,01,16,15,15.40
2019,04,01,16,16,15.40
2019,04,01,16,17,15.40
2019,04,01,16,18,15.40
2019,04,01,16,19,15.30
2019,04,01,16,20,15.30
2019,04,01,16,21,15.40
2019,04,01,16,22,15.40
2019,04,01,16,23,15.30
2019,04,01,16,24,15.30
2019,04,01,16,25,15.30
2019,04,01,16,26,15.40
2019,04,01,16,27,15.50
2019,04,01,16,28,15.60
2019,04,01,16,29,15.60
2019,04,01,16,30,15.70
2019,04,01,16,31,15.60
2019,04,01,16,32,15.50
2019,04,01,16,33,15.40
2019,04,01,16,34,15.40
2019,04,01,16,35,15.40
2019,04,01,16,36,15.40
2019,04,01,16,37,15.50
2019,04,01,16,38,15.50
2019,04,01,16,39,15.60
2019,04,01,16,40,15.60
2019,04,01,16,41,15.60
2019,04,01,16,42,15.60
2019,04,01,16,43,15.60
2019,04,01,16,44,15.50
2019,04,01,16,45,15.40
2019,04,01,16,46,15.30
2019,04,01,16,47,15.30
2019,04,01,16,48,15.30
2019,04,01,16,49,15.20
2019,04,01,16,50,15.20
2019,04,01,16,51,15.10
2019,04,01,16,52,15.10
2019,04,01,16,53,15.10
2019,04,01,16,54,15.10
2019,04,01,16,55,15.20
2019,04,01,16,56,15.20
2019,04,01,16,57,15.10
2019,04,01,16,58,15.10
2019,04,01,16,59,15.00
2019,04,01,17,00,15.00
2019,04,01,17,01,15.00
2019,04,01,17,02,15.10
2019,04,01,17,03,15.20
2019,04,01,17,04,15.30
2019,04,01,17,05,15.30
2019,04,01,17,06,15.30
2019,04,01,17,07,15.30
2019,04,01,17,08,15.30
2019,04,01,17,09,15.30
2019,04,01,17,10,15.30
2019,04,01,17,11,15.40
2019,04,01,17,12,15.50
2019,04,01,17,13,15.60
2019,04,01,17,14,15.70
2019,04,01,17,15,15.70
2019,04,01,17,16,15.70
2019,04,01,17,17,15.60
2019,04,01,17,18,15.60
2019,04,01,17,19,15.60
2019,04,01,17,20,15.60
2019,04,01,17,21,15.60
2019,04,01,17,22,15.60
2019,04,01,17,23,15.60
2019,04,01,17,24,15.50
2019,04,01,17,25,15.50
2019,04,01,17,26,15.40
2019,04,01,17,27,15.40
2019,04,01,17,28,15.30
2019,04,01,17,29,15.30
2019,04,01,17,30,15.20
2019,04,01,17,31,15.20
2019,04,01,17,32,15.20
2019,04,01,17,33,15.10
2019,04,01,17,34,15.10
2019,04,01,17,35,15.10
2019,04,01,17,36,15.10
2019,04,01,17,37,15.10
2019,04,01,17,38,15.20
2019,04,01,17,39,15.20
2019,04,01,17,40,15.20
2019,04,01,17,41,15.20